Starlink 32908

operational
NORAD ID: 63084 Int'l Des: 2025-037 Owner: SPXS Country: US Constellation: starlink
LEOCIRCULAR

About Starlink 32908

Description loading...

Live Position

Loading 3D Globe...

Upcoming Passes

Altitude History

Altitude vs Time

uPlot chart will show altitude changes over time

Two-Line Element Set

1 63084U 25037H 25351.91699863 .00001926 00000-0 16916-3 0 9999
2 63084 70.0004 200.6138 0002523 271.7890 88.2980 14.98339342 46214
Epoch: Dec 17, 2025 • Age: 11 hours

Current Status

Altitude 595.7 km
Velocity 7.56 km/s
Sub-Earth Point -69.81°S, 100.11°W
Launch Date Feb 23, 2025
Age 0.8 years
Type internet

Technical Details

Classification Payload
Mass 730.00 kg
Dry Mass 700.00 kg
Total Mass 730.00 kg
Length 0.30 m
Diameter 4.10 m
Span 29.00 m
Shape Box + pan
Manufacturer SPXS
Bus Type Starlink V2M
Phase Status In Orbit
Owner/State SPXS/US

Large Constellations

Loading constellations...